Regional Weather Roundup
Issued by NWS

Home | Current Version | Previous Version | Graphics & Text | Print | Product List | Glossary On
Versions: 1 2 3 4 5 6 7 8 9 10 11 12 13 14 15 16 17 18 19 20 21 22 23 24 25 26 27 28 29 30 31 32 33 34 35 36 37 38 39 40 41 42 43 44 45 46 47 48 49 50
523
ASUS45 KSLC 110010
RWRUT

UTAH REGIONAL WEATHER ROUNDUP
NATIONAL WEATHER SERVICE SALT LAKE CITY UT
500 PM MST WED FEB 10 2016

UTZ001>011-023>025-110100-

NORTHERN UTAH

CITY           SKY/WX    TMP DP  RH WIND       PRES   REMARKS
BRIGHAM CITY   CLOUDY    29  27  92 CALM      30.47S
HILL AFB       PTCLDY    30  26  85 NW5       30.43R FOG     WCI  25
LOGAN          FOG       22  21  96 SW3       30.45S VSB 3/4
OGDEN          CLOUDY    29  27  92 NW7       30.44R FOG     WCI  22
PROVO AIRPORT  CLEAR     27  21  80 CALM      30.42S HAZE
SALT LAKE CITY CLOUDY    31  27  85 NW7       30.45R FOG     WCI  24
VERNAL         CLOUDY    26  18  71 CALM      30.36S HAZE
WENDOVER       CLOUDY    32  27  80 S5        30.45S WCI  27
HEBER CITY     CLEAR     34  23  64 CALM      30.37S
WEST JORDAN    CLOUDY    30  28  93 NW10      30.44S WCI  21

$$

UTZ012>022-026-027-110100-

SOUTHERN/CENTRAL UTAH

CITY           SKY/WX    TMP DP  RH WIND       PRES   REMARKS
BLANDING       PTCLDY    42  29  59 CALM      30.43S
BRYCE CANYON   SUNNY     48  12  23 NW12      30.39F
CEDAR CITY     SUNNY     45  28  51 N5        30.33F
DELTA          PTCLDY    23  20  90 CALM      30.43R
HANKSVILLE     CLEAR     46  32  57 SW3       30.39F
MILFORD        MOSUNNY   24  18  77 N9        30.38F WCI  14
MOAB/CYNLANDS  CLEAR     39  29  67 NW3       30.36F
PRICE          CLEAR     41  22  46 CALM      30.36S
ST GEORGE      CLEAR     64  27  24 SE5       30.26F

$$

REGIONAL REPORTS     COLORADO/ARIZONA

CITY           SKY/WX    TMP DP  RH WIND       PRES   REMARKS
CRAIG, CO      CLOUDY    20  15  81 S3        30.35R
GRAND JUNCTION CLOUDY    37  29  72 N6        30.37S WCI  32
RIFLE          CLOUDY    38  21  50 SE5       30.36R WCI  34
MONTROSE       CLOUDY    42  25  50 N7        30.36S
CORTEZ         CLOUDY    50  25  37 E3        30.35F
PAGE, AZ       SUNNY     53  28  38 N6        30.33S
GRAND CANYON   SUNNY     62  10  13 SW5       30.37F
KINGMAN        SUNNY     72  22  15 N5        30.22F
FLAGSTAFF      MOSUNNY   57  21  24 E6        30.38S

$$

REGIONAL REPORTS    NEVADA/IDAHO/WYOMING

CITY           SKY/WX    TMP DP  RH WIND       PRES   REMARKS
LAS VEGAS, NV  MOSUNNY   71  22  15 NE3       30.19S
ELY            SUNNY     37  29  72 SE5       30.38R WCI  33
ELKO           MOSUNNY   31  19  61 E6        30.43S WCI  25
POCATELLO, ID  CLOUDY    35  25  66 NE7       30.41R WCI  29
BURLEY         PTCLDY    39  31  72 N5        30.36S
EVANSTON, WY   CLOUDY    38  21  50 SW12      30.37S WCI  30
ROCK SPRINGS   CLOUDY    39  21  48 W23       30.29R WCI  28
KEMMERER       CLOUDY    32  21  64 W7        30.36S WCI  26

$$




USA.gov is the U.S. government's official web portal to all federal, state and local government web resources and services.